[[{"header":{"parameterUnit":"m.s-1","parameterCategory":2,"la1":30.2991,"la2":30.254,"lo1":-89.0895,"lo2":-89.0444,"dy":0.0017,"dx":0.0017,"nx":28,"ny":28,"refTime":"2024-06-13T09:00:00:Z","depth":"0","parameterNumber":2,"parameterNumberName":"U-component_of_CURRENTS"},"data":[0,0,0,0,0,0,0,0,0,0,0,0,0,0,0,0,0,0,0,0,0,0,0,0,0,0,0,0,0,0,0,0,0,0,0,0,0,0,0,0,0,0,0,0,0,0,0,0,0,0,0,0,0,0,0,0,0,0,0.1631,0.1631,0,0.1677,0.1678,0.1678,0.1701,0.1701,0.1701,0.1701,0.1725,0.1725,0.1726,0,0,0,0,0,0,0,0,0,0,0,0,0,0.1577,0.1577,0.1631,0.1631,0.1632,0.1677,0.1678,0.1678,0.1701,0.1701,0.1701,0.1701,0.1725,0.1725,0.1726,0,0,0,0,0,0,0,0,0,0,0,0,0,0.1608,0.1578,0.1631,0.1649,0.1652,0.1677,0.1678,0.1678,0.17,0.1701,0.1701,0.1701,0.1724,0.1725,0.1726,0.1729,0,0,0.1729,0.1729,0,0,0,0,0,0,0,0,0.1606,0.161,0.1646,0.1648,0.1651,0.1684,0.1668,0.1694,0.17,0.1681,0.1701,0.1701,0.171,0.1712,0.1719,0.173,0.1731,0.1729,0.1729,0.173,0.173,0,0,0,0,0,0,0,0.1604,0.1608,0.1648,0.1647,0.165,0.1661,0.1665,0.1673,0.1693,0.1683,0.1685,0.1691,0.1711,0.1718,0.172,0.1731,0.1729,0.1729,0.173,0.173,0.1783,0.1784,0,0,0,0,0,0,0.16,0.1606,0.1647,0.1649,0.163,0.1662,0.1667,0.1672,0.1693,0.1697,0.1691,0.1692,0.1717,0.1719,0.1721,0.1755,0.173,0.173,0.1731,0.1782,0.1783,0.1784,0,0,0,0,0,0,0.1598,0.1603,0.1645,0.163,0.1636,0.1663,0.1669,0.1673,0.1684,0.17,0.1703,0.1698,0.1717,0.1719,0.1744,0.1755,0.1731,0.1732,0.1781,0.1782,0.1784,0.1804,0,0,0,0,0,0,0.1597,0.1602,0.1605,0.1629,0.1637,0.1663,0.1669,0.1674,0.1689,0.1691,0.1707,0.171,0.1717,0.1743,0.1745,0.1755,0.1732,0.178,0.1782,0.1783,0.1802,0.1806,0.1809,0,0,0,0,0,0.1594,0.1596,0.1605,0.161,0.164,0.1664,0.1669,0.1687,0.1689,0.1697,0.1716,0.1709,0.1754,0.1744,0.1746,0.1757,0.1779,0.1781,0.1783,0.18,0.1805,0.1809,0,0,0,0,0,0,0.1563,0.16,0.161,0.1619,0.1642,0.1668,0.1676,0.1687,0.1708,0.1709,0.1722,0.1726,0.1753,0.1753,0.1741,0.1779,0.1765,0.1767,0.1777,0.1782,0.1785,0.1774,0.1733,0,0,0,0,0,0.156,0.1576,0.1608,0.1613,0.1627,0.1651,0.1662,0.1676,0.1698,0.1706,0.1719,0.1737,0.1762,0.177,0.1787,0.1804,0.1813,0.1813,0.1816,0.1819,0.1812,0.1844,0.185,0.1791,0.1791,0.1791,0,0,0.1546,0.1569,0.1576,0.1609,0.1627,0.1645,0.1658,0.1676,0.169,0.1705,0.1724,0.1749,0.1771,0.1798,0.1809,0.1799,0.1844,0.1821,0.1824,0.1815,0.1847,0.1853,0.1858,0.1792,0.1792,0.1792,0,0,0.1526,0.155,0.1558,0.1585,0.1618,0.1637,0.1643,0.1673,0.1688,0.1714,0.1735,0.1767,0.1791,0.1816,0.1831,0.186,0.1864,0.1866,0.187,0.1901,0.1906,0.1911,0.1942,0.1949,0.1864,0.1864,0.1864,0,0.1505,0.1525,0.1562,0.1581,0.1599,0.1634,0.1644,0.1668,0.17,0.1714,0.1721,0.1781,0.18,0.1841,0.1859,0.1867,0.1886,0.1853,0.1905,0.191,0.1914,0.1945,0.1952,0.1865,0.1865,0.1865,0.1865,0,0.1498,0.1518,0.1525,0.1564,0.1588,0.1603,0.1644,0.1664,0.1686,0.1711,0.1755,0.1793,0.1828,0.1845,0.1864,0.1906,0.1913,0.1909,0.1893,0.1921,0.1952,0.196,0.1867,0.1866,0.1866,0.1866,0,0,0.1434,0.1504,0.1506,0.1527,0.1581,0.1597,0.1627,0.1663,0.168,0.1723,0.1748,0.181,0.1835,0.1854,0.1885,0.1914,0.1972,0.1926,0.1927,0.1953,0.2048,0.208,0.2091,0.1981,0.1983,0.1983,0.2063,0,0.1411,0.1443,0.1484,0.1509,0.1529,0.1579,0.1603,0.1644,0.168,0.1715,0.1768,0.1809,0.1838,0.1862,0.19,0.1957,0.199,0.195,0.2019,0.2021,0.2043,0.21,0.2116,0.219,0.207,0.2071,0.2072,0,0.1387,0.1416,0.1436,0.1493,0.1504,0.1521,0.1566,0.1596,0.166,0.1692,0.1747,0.1792,0.1863,0.1873,0.1979,0.1956,0.2002,0.2039,0.2043,0.2066,0.2067,0.2141,0.2208,0.2107,0.2083,0.2082,0.2081,0,0.1329,0.1381,0.1394,0.1415,0.1481,0.1491,0.1522,0.1581,0.161,0.168,0.1712,0.1795,0.1846,0.1916,0.2014,0.2,0.2122,0.2107,0.2176,0.2179,0.2201,0.2204,0.2173,0.2168,0.2168,0.2168,0.2168,0,0.1297,0.1307,0.1367,0.1377,0.1389,0.145,0.1468,0.1512,0.1575,0.1615,0.1697,0.1749,0.186,0.1949,0.2019,0.2139,0.2133,0.2191,0.2207,0.2211,0.2213,0.2132,0.2063,0.2171,0.217,0.217,0.2169,0,0.1239,0.1279,0.1294,0.1349,0.1363,0.1371,0.1433,0.1455,0.1522,0.1576,0.1603,0.173,0.1862,0.1973,0.21,0.2153,0.2194,0.2285,0.2287,0.2302,0.2262,0.2195,0.2107,0.205,0.2372,0.2373,0.2374,0,0.1214,0.1219,0.1259,0.1268,0.129,0.1317,0.134,0.1414,0.1447,0.1568,0.1593,0.1738,0.186,0.2073,0.2207,0.2352,0.2239,0.2414,0.2384,0.2274,0.221,0.2074,0.2022,0.2426,0.2428,0.2429,0.243,0,0.117,0.118,0.12,0.1214,0.1231,0.1257,0.1298,0.1318,0.1415,0.1482,0.1601,0.1711,0.1948,0.2122,0.2313,0.2409,0.2292,0.2442,0.233,0.2256,0.2104,0.2054,0.235,0.2441,0.244,0.2439,0.2438,0.2438,0.113,0.1135,0.1162,0.1173,0.1186,0.1207,0.1227,0.1289,0.1357,0.1475,0.1578,0.1745,0.1989,0.2287,0.2367,0.2464,0.2366,0.2428,0.236,0.2234,0.2155,0.2476,0.258,0.258,0.2579,0.2579,0.2579,0,0.1099,0.1121,0.113,0.1148,0.1147,0.1169,0.1212,0.1245,0.1325,0.1452,0.1579,0.1823,0.2034,0.2221,0.2407,0.2373,0.2293,0.2302,0.2102,0.2061,0.2373,0.2351,0.2408,0.2408,0.2408,0.2408,0.2409,0.2409,0.1084,0.1103,0.1118,0.1116,0.1122,0.1134,0.1156,0.1211,0.1296,0.1446,0.1577,0.1706,0.1919,0.211,0.2185,0.2189,0.1985,0.1946,0.1838,0.205,0.2055,0.2059,0.2022,0.2009,0.2008,0.1509,0.1505,0.1502]},{"header":{"parameterUnit":"m.s-1","parameterCategory":2,"la1":30.2991,"la2":30.254,"lo1":-89.0895,"lo2":-89.0444,"dy":0.0017,"dx":0.0017,"nx":28,"ny":28,"refTime":"2024-06-13T09:00:00:Z","depth":"0","parameterNumber":3,"parameterNumberName":"V-component_of_CURRENTS"},"data":[0,0,0,0,0,0,0,0,0,0,0,0,0,0,0,0,0,0,0,0,0,0,0,0,0,0,0,0,0,0,0,0,0,0,0,0,0,0,0,0,0,0,0,0,0,0,0,0,0,0,0,0,0,0,0,0,0,0,0.0534,0.0534,0,0.0507,0.0506,0.0506,0.048,0.048,0.048,0.048,0.0373,0.037,0.0367,0,0,0,0,0,0,0,0,0,0,0,0,0,0.0589,0.0588,0.0534,0.0534,0.0533,0.0507,0.0506,0.0506,0.048,0.048,0.048,0.048,0.0373,0.037,0.0367,0,0,0,0,0,0,0,0,0,0,0,0,0,0.0563,0.0587,0.0534,0.0518,0.0517,0.0507,0.0506,0.0506,0.0481,0.048,0.048,0.048,0.0375,0.0371,0.0367,0.0349,0,0,0.0355,0.0353,0,0,0,0,0,0,0,0,0.0564,0.0561,0.0521,0.0519,0.0518,0.0497,0.0486,0.045,0.0481,0.0493,0.048,0.0479,0.0408,0.0401,0.0397,0.0344,0.034,0.0354,0.0352,0.035,0.0349,0,0,0,0,0,0,0,0.0566,0.0562,0.0522,0.0521,0.0519,0.0521,0.0517,0.048,0.0451,0.0492,0.0491,0.0489,0.0406,0.0401,0.0394,0.0338,0.0354,0.0351,0.0349,0.0347,0.0251,0.0251,0,0,0,0,0,0,0.057,0.0563,0.0523,0.0522,0.0542,0.052,0.0515,0.0503,0.0453,0.0446,0.0489,0.0488,0.0407,0.0398,0.039,0.0368,0.035,0.0347,0.0344,0.0251,0.0251,0.0251,0,0,0,0,0,0,0.0571,0.0566,0.0524,0.0543,0.0538,0.052,0.0507,0.0503,0.05,0.0452,0.0443,0.049,0.0407,0.0395,0.0366,0.0364,0.0345,0.0341,0.0252,0.0251,0.0251,0.0324,0,0,0,0,0,0,0.0573,0.0567,0.0563,0.0543,0.0537,0.0527,0.0507,0.0503,0.0499,0.0497,0.0449,0.0439,0.0406,0.0372,0.0362,0.0358,0.0338,0.0252,0.0252,0.0251,0.0322,0.0326,0.033,0,0,0,0,0,0.0575,0.0568,0.0562,0.0558,0.0531,0.0528,0.0525,0.0511,0.05,0.0505,0.0472,0.044,0.0362,0.0369,0.0357,0.0352,0.0252,0.0252,0.0251,0.032,0.0325,0.033,0,0,0,0,0,0,0.0582,0.0564,0.0558,0.0543,0.0542,0.0524,0.0526,0.0516,0.0495,0.0489,0.0444,0.0431,0.0405,0.0367,0.0376,0.0322,0.0299,0.0296,0.0355,0.036,0.0364,0.0383,0.0335,0,0,0,0,0,0.0584,0.0576,0.0565,0.0554,0.0557,0.0544,0.0541,0.0532,0.0511,0.0502,0.0469,0.0427,0.0393,0.037,0.0336,0.0307,0.028,0.0292,0.0296,0.03,0.0306,0.0267,0.0268,0.025,0.025,0.025,0,0,0.0581,0.0573,0.0566,0.0557,0.0553,0.0556,0.0541,0.054,0.0536,0.0491,0.0475,0.0444,0.0391,0.0364,0.0347,0.0332,0.0293,0.03,0.0304,0.0308,0.0267,0.0268,0.027,0.025,0.025,0.025,0,0,0.0583,0.057,0.0573,0.0576,0.0576,0.0568,0.0571,0.0559,0.0551,0.0535,0.0502,0.0476,0.042,0.0388,0.0362,0.0365,0.0321,0.0346,0.0376,0.0338,0.0339,0.0341,0.0322,0.0321,0.0342,0.0342,0.0342,0,0.0588,0.0579,0.0574,0.0584,0.0586,0.0575,0.0583,0.0574,0.0553,0.0548,0.0536,0.0473,0.0431,0.0398,0.0402,0.0375,0.0353,0.0366,0.0345,0.0346,0.0345,0.0326,0.0324,0.0345,0.0345,0.0345,0.0344,0,0.0591,0.0592,0.0597,0.0601,0.0605,0.0609,0.0603,0.0601,0.0589,0.0579,0.0558,0.0513,0.0475,0.0456,0.0429,0.0406,0.0393,0.0363,0.034,0.0352,0.033,0.0327,0.035,0.0349,0.0348,0.0347,0,0,0.0588,0.0598,0.06,0.0609,0.0615,0.0617,0.0618,0.0618,0.0618,0.06,0.0599,0.055,0.0538,0.0507,0.0471,0.044,0.0425,0.0407,0.0404,0.0402,0.0357,0.0349,0.0344,0.0393,0.0393,0.0392,0.0348,0,0.0596,0.0611,0.0613,0.0629,0.0639,0.0638,0.064,0.0638,0.0632,0.0629,0.0598,0.058,0.0552,0.0538,0.0506,0.0447,0.0417,0.0441,0.0334,0.0331,0.0332,0.0339,0.0346,0.0307,0.0344,0.0344,0.0343,0,0.0603,0.0611,0.0626,0.0645,0.065,0.0656,0.0662,0.0665,0.0663,0.066,0.0649,0.0629,0.0598,0.0565,0.0483,0.0501,0.0438,0.039,0.0386,0.035,0.0315,0.0295,0.0299,0.0194,0.0337,0.0338,0.0338,0,0.0604,0.0623,0.0632,0.0639,0.0655,0.0662,0.0669,0.0674,0.0682,0.0684,0.0693,0.0656,0.0639,0.0564,0.0485,0.0478,0.0393,0.0362,0.0296,0.0295,0.0265,0.0262,0.0164,0.0293,0.0293,0.0293,0.0293,0,0.0613,0.0624,0.0633,0.0642,0.0655,0.0668,0.0683,0.069,0.0704,0.0724,0.0711,0.0721,0.0636,0.0586,0.0501,0.0402,0.0401,0.0308,0.0281,0.0291,0.0292,0.017,0.0117,0.0291,0.0292,0.0292,0.0292,0,0.0616,0.0622,0.0638,0.0653,0.0658,0.0669,0.0697,0.071,0.0727,0.0754,0.076,0.0762,0.0712,0.0624,0.0505,0.0423,0.027,0.028,0.0314,0.0291,0.0135,0.0087,-0.0018,-0.0052,0.0203,0.0203,0.0202,0,0.0616,0.0624,0.0642,0.065,0.0658,0.0675,0.0688,0.0714,0.0736,0.0782,0.08,0.0782,0.0785,0.0635,0.0485,0.0343,0.0252,0.0239,0.0219,0.0132,0.0057,0.0038,0.0016,0.0212,0.0211,0.0211,0.0211,0,0.0621,0.0628,0.0639,0.0649,0.0665,0.0689,0.0717,0.0743,0.0782,0.0829,0.0885,0.0901,0.078,0.0668,0.0478,0.0367,0.0182,0.0229,0.0118,0.0043,0.0036,-0.0012,0.0247,0.0209,0.0209,0.0209,0.0209,0.0209,0.0617,0.0629,0.0641,0.0652,0.067,0.0709,0.0744,0.0795,0.0862,0.0966,0.096,0.1031,0.0847,0.0609,0.043,0.013,0.0148,0.0045,-0.0007,-0.0019,-0.005,0.0219,0.0159,0.0159,0.0159,0.0159,0.0159,0,0.0609,0.063,0.0643,0.0667,0.0688,0.0702,0.0766,0.0827,0.0931,0.1044,0.112,0.1091,0.0852,0.0583,0.0176,-0.0059,-0.0127,-0.0176,-0.0215,-0.0228,-0.0014,-0.0013,-0.0088,-0.0087,-0.0087,-0.0087,-0.0087,-0.0087,0.0607,0.0627,0.0641,0.0676,0.0696,0.0754,0.0802,0.0916,0.1018,0.1184,0.1261,0.1296,0.1078,0.0351,-0.0167,-0.0286,-0.0421,-0.0448,-0.0516,-0.0393,-0.0376,-0.0361,-0.0373,-0.0522,-0.0523,-0.0691,-0.0693,-0.0694]}],[{"header":{"parameterUnit":"m.s-1","parameterCategory":2,"la1":30.2991,"la2":30.254,"lo1":-89.0895,"lo2":-89.0444,"dy":0.0017,"dx":0.0017,"nx":28,"ny":28,"refTime":"2024-06-13T09:00:00:Z","depth":"2","parameterNumber":2,"parameterNumberName":"U-component_of_CURRENTS"},"data":[0,0,0,0,0,0,0,0,0,0,0,0,0,0,0,0,0,0,0,0,0,0,0,0,0,0,0,0,0,0,0,0,0,0,0,0,0,0,0,0,0,0,0,0,0,0,0,0,0,0,0,0,0,0,0,0,0,0,0.1087,0.1088,0,0.1118,0.1118,0.1117,0.1202,0.1204,0.1207,0.1209,0.1238,0.1237,0.1235,0,0,0,0,0,0,0,0,0,0,0,0,0,0.1069,0.1069,0.1086,0.1088,0.1089,0.1118,0.1118,0.1117,0.1201,0.1204,0.1208,0.1211,0.1239,0.1237,0.1235,0,0,0,0,0,0,0,0,0,0,0,0,0,0.1078,0.1068,0.1086,0.1141,0.1147,0.1118,0.1118,0.1117,0.12,0.1204,0.1208,0.1212,0.124,0.1237,0.1235,0.114,0,0,0.1227,0.1226,0,0,0,0,0,0,0,0,0.1077,0.1077,0.1132,0.1137,0.1144,0.1168,0.1123,0.1128,0.1199,0.117,0.1209,0.1214,0.1218,0.1217,0.1201,0.1141,0.1143,0.1227,0.1225,0.1224,0.1223,0,0,0,0,0,0,0,0.1076,0.1076,0.109,0.1133,0.114,0.1155,0.1159,0.1123,0.1164,0.1173,0.1182,0.1198,0.122,0.1203,0.1203,0.1143,0.1227,0.1225,0.1223,0.1222,0.1147,0.1146,0,0,0,0,0,0,0.1088,0.1075,0.1089,0.1092,0.113,0.1153,0.1157,0.1149,0.1165,0.1174,0.1195,0.1202,0.1206,0.1206,0.1204,0.1215,0.1224,0.1222,0.122,0.1147,0.1147,0.1146,0,0,0,0,0,0,0.1086,0.1087,0.1088,0.1093,0.1096,0.115,0.1139,0.1148,0.1174,0.1183,0.1191,0.1219,0.1209,0.1208,0.1213,0.1212,0.1221,0.1218,0.1148,0.1147,0.1146,0.1157,0,0,0,0,0,0,0.1085,0.1086,0.1093,0.1093,0.1096,0.1097,0.1136,0.1146,0.118,0.1191,0.1205,0.121,0.1212,0.1217,0.1211,0.1209,0.1216,0.1148,0.1147,0.1147,0.1158,0.1157,0.1157,0,0,0,0,0,0.1084,0.1079,0.1092,0.1096,0.11,0.1098,0.11,0.1146,0.1178,0.1183,0.1204,0.1212,0.1207,0.1214,0.1207,0.1205,0.1149,0.1148,0.1147,0.1158,0.1157,0.1157,0,0,0,0,0,0,0.1106,0.1087,0.1103,0.1102,0.1114,0.1117,0.1132,0.1153,0.1166,0.1191,0.1197,0.1201,0.1207,0.1195,0.1203,0.118,0.1181,0.1178,0.1192,0.1191,0.119,0.1222,0.1214,0,0,0,0,0,0.1103,0.1079,0.1087,0.1092,0.1095,0.1112,0.1123,0.1151,0.1163,0.1175,0.1187,0.1192,0.1182,0.1185,0.1175,0.1148,0.115,0.1144,0.1143,0.1143,0.1164,0.1151,0.1152,0.1142,0.1142,0.1142,0,0,0.1116,0.1106,0.1098,0.1093,0.1102,0.1091,0.1127,0.1149,0.1148,0.117,0.1179,0.1191,0.1176,0.1165,0.1166,0.1165,0.1145,0.1142,0.1142,0.1163,0.115,0.1151,0.1152,0.1142,0.1142,0.1142,0,0,0.1113,0.1116,0.109,0.1085,0.1104,0.1105,0.1117,0.113,0.115,0.1155,0.1171,0.1194,0.1173,0.117,0.116,0.1143,0.1144,0.1135,0.1156,0.1142,0.1144,0.1145,0.1144,0.1145,0.1133,0.1133,0.1133,0,0.1121,0.1108,0.1093,0.107,0.1084,0.1109,0.1109,0.1099,0.1121,0.1134,0.1173,0.1174,0.1176,0.115,0.1167,0.1144,0.1144,0.116,0.1144,0.1145,0.1146,0.1145,0.1146,0.1133,0.1133,0.1133,0.1133,0,0.1107,0.1094,0.1085,0.1052,0.1056,0.1067,0.1061,0.1074,0.1116,0.1121,0.1144,0.1156,0.117,0.1162,0.117,0.1165,0.1165,0.1147,0.115,0.1148,0.1146,0.1147,0.1134,0.1134,0.1134,0.1134,0,0,0.1101,0.1076,0.1073,0.1066,0.1061,0.1058,0.1052,0.106,0.1069,0.1099,0.1122,0.1128,0.1169,0.1162,0.1164,0.1168,0.1184,0.1177,0.1176,0.1186,0.117,0.1225,0.1232,0.1164,0.1164,0.1165,0.1165,0,0.1099,0.1072,0.1063,0.1045,0.1035,0.1049,0.1038,0.1044,0.1071,0.1087,0.1109,0.1135,0.1146,0.1188,0.1183,0.1189,0.1189,0.1188,0.1163,0.1163,0.122,0.1235,0.1066,0.1058,0.1166,0.1166,0.1166,0,0.1083,0.1071,0.1069,0.1051,0.1051,0.1048,0.1072,0.1069,0.1074,0.1104,0.1132,0.1151,0.1172,0.1194,0.1189,0.119,0.1195,0.1195,0.1194,0.125,0.1222,0.1077,0.1056,0.1168,0.1168,0.1167,0.1167,0,0.1095,0.1066,0.1081,0.1073,0.1055,0.1075,0.1091,0.1096,0.1096,0.1141,0.1165,0.117,0.1211,0.12,0.1226,0.1213,0.1226,0.1189,0.1231,0.1234,0.1091,0.1083,0.1188,0.1188,0.1188,0.1188,0.1188,0,0.1092,0.1083,0.1092,0.1087,0.1097,0.1101,0.112,0.1134,0.1154,0.1153,0.1191,0.1206,0.1224,0.123,0.1227,0.125,0.1219,0.1257,0.1245,0.1091,0.1083,0.1178,0.1177,0.1188,0.1188,0.1188,0.1188,0,0.1082,0.1094,0.1079,0.1089,0.1096,0.1111,0.113,0.1131,0.1175,0.1184,0.1213,0.1243,0.1291,0.1289,0.1297,0.1273,0.1277,0.1288,0.113,0.1103,0.1287,0.1286,0.1324,0.1326,0.1328,0.1329,0.1331,0,0.1072,0.1071,0.1077,0.1076,0.1085,0.1109,0.1113,0.1146,0.1154,0.1197,0.1202,0.1275,0.1307,0.1348,0.1348,0.1354,0.135,0.1196,0.1152,0.132,0.1304,0.13,0.1297,0.0944,0.0942,0.094,0.0939,0,0.1035,0.1049,0.1047,0.1055,0.1064,0.1049,0.108,0.1078,0.1121,0.1145,0.1189,0.1234,0.1314,0.1281,0.133,0.1289,0.1186,0.117,0.1347,0.0972,0.0972,0.0954,0.096,0.0924,0.0925,0.0927,0.0927,0.0928,0.1003,0.0999,0.1012,0.1013,0.1024,0.1004,0.0996,0.1022,0.1036,0.1081,0.1142,0.118,0.1162,0.1211,0.1182,0.1152,0.1221,0.1086,0.1085,0.1087,0.108,0.1087,0.1059,0.1061,0.1063,0.1065,0.1066,0,0.0947,0.0961,0.0962,0.0961,0.0956,0.0979,0.0973,0.0955,0.098,0.1032,0.1095,0.0977,0.0987,0.1006,0.0953,0.096,0.0892,0.0897,0.0756,0.0769,0.0781,0.0755,0.0649,0.0648,0.0648,0.0648,0,0,0.0919,0.0906,0.0911,0.0891,0.091,0.0907,0.0902,0.0875,0.0896,0.0873,0.0894,0.0997,0.098,0.083,0.0775,0.072,0.075,0.0687,0.1004,0.085,0.0863,0.0855,0.0827,0,0,0,0,0]},{"header":{"parameterUnit":"m.s-1","parameterCategory":2,"la1":30.2991,"la2":30.254,"lo1":-89.0895,"lo2":-89.0444,"dy":0.0017,"dx":0.0017,"nx":28,"ny":28,"refTime":"2024-06-13T09:00:00:Z","depth":"2","parameterNumber":3,"parameterNumberName":"V-component_of_CURRENTS"},"data":[0,0,0,0,0,0,0,0,0,0,0,0,0,0,0,0,0,0,0,0,0,0,0,0,0,0,0,0,0,0,0,0,0,0,0,0,0,0,0,0,0,0,0,0,0,0,0,0,0,0,0,0,0,0,0,0,0,0,-0.0275,-0.0274,0,-0.024,-0.0241,-0.0241,-0.0198,-0.0196,-0.0194,-0.0193,-0.029,-0.0295,-0.0299,0,0,0,0,0,0,0,0,0,0,0,0,0,-0.0333,-0.0333,-0.0276,-0.0274,-0.0272,-0.024,-0.0241,-0.0242,-0.0199,-0.0196,-0.0194,-0.0192,-0.0289,-0.0294,-0.0299,0,0,0,0,0,0,0,0,0,0,0,0,0,-0.0317,-0.0333,-0.0276,-0.0237,-0.0232,-0.024,-0.0241,-0.0242,-0.0199,-0.0196,-0.0193,-0.0191,-0.0287,-0.0294,-0.03,-0.0398,0,0,-0.032,-0.0323,0,0,0,0,0,0,0,0,-0.0318,-0.0316,-0.0244,-0.024,-0.0234,-0.0209,-0.0296,-0.0296,-0.02,-0.0226,-0.0193,-0.0189,-0.0269,-0.0277,-0.0294,-0.0402,-0.0407,-0.0321,-0.0325,-0.0328,-0.0329,0,0,0,0,0,0,0,-0.0319,-0.0318,-0.0275,-0.0243,-0.0236,-0.0229,-0.0225,-0.0296,-0.0277,-0.0223,-0.0217,-0.0192,-0.0268,-0.0287,-0.0296,-0.0408,-0.0321,-0.0326,-0.0331,-0.0333,-0.0504,-0.0504,0,0,0,0,0,0,-0.0298,-0.0319,-0.0276,-0.0273,-0.0254,-0.023,-0.0226,-0.0231,-0.0273,-0.0272,-0.0195,-0.019,-0.0278,-0.0288,-0.0299,-0.0331,-0.0328,-0.0334,-0.0338,-0.0503,-0.0504,-0.0504,0,0,0,0,0,0,-0.03,-0.0296,-0.0277,-0.0282,-0.0277,-0.023,-0.0237,-0.0231,-0.0211,-0.0247,-0.0251,-0.0173,-0.0276,-0.029,-0.0324,-0.0337,-0.0337,-0.0343,-0.0502,-0.0503,-0.0504,-0.045,0,0,0,0,0,0,-0.0303,-0.0298,-0.0289,-0.0282,-0.0276,-0.026,-0.0238,-0.0232,-0.0196,-0.0189,-0.0232,-0.0239,-0.0275,-0.0314,-0.0331,-0.0346,-0.0348,-0.0502,-0.0503,-0.0504,-0.0451,-0.0449,-0.0447,0,0,0,0,0,-0.0306,-0.0311,-0.029,-0.0283,-0.0268,-0.0259,-0.0257,-0.0222,-0.0197,-0.0195,-0.021,-0.0236,-0.0333,-0.032,-0.0339,-0.0357,-0.0501,-0.0502,-0.0504,-0.0452,-0.0449,-0.0447,0,0,0,0,0,0,-0.0287,-0.0305,-0.0283,-0.0278,-0.0253,-0.0245,-0.023,-0.021,-0.0223,-0.0213,-0.0249,-0.0259,-0.0291,-0.0337,-0.0321,-0.0409,-0.0422,-0.0427,-0.0375,-0.0374,-0.0372,-0.0334,-0.0353,0,0,0,0,0,-0.0287,-0.0319,-0.0297,-0.0282,-0.0274,-0.0249,-0.0235,-0.0215,-0.0219,-0.0218,-0.024,-0.0278,-0.0325,-0.0351,-0.0398,-0.0459,-0.0485,-0.0482,-0.048,-0.0478,-0.0461,-0.052,-0.0521,-0.0509,-0.0509,-0.0509,0,0,-0.0257,-0.0278,-0.028,-0.0283,-0.0265,-0.0262,-0.0237,-0.0213,-0.0209,-0.0235,-0.0243,-0.027,-0.0335,-0.0383,-0.0405,-0.0417,-0.0495,-0.048,-0.0477,-0.0461,-0.0521,-0.0522,-0.0523,-0.051,-0.051,-0.0509,0,0,-0.0255,-0.0247,-0.0284,-0.0278,-0.0257,-0.0249,-0.0233,-0.0219,-0.021,-0.0224,-0.0238,-0.0254,-0.0334,-0.0369,-0.0404,-0.0426,-0.0474,-0.0454,-0.0428,-0.0485,-0.0486,-0.0487,-0.0511,-0.0515,-0.0464,-0.0463,-0.0463,0,-0.0243,-0.0252,-0.0276,-0.0303,-0.0271,-0.0241,-0.0228,-0.024,-0.0232,-0.0234,-0.0214,-0.0287,-0.0325,-0.0388,-0.0379,-0.042,-0.0452,-0.0429,-0.048,-0.0482,-0.0484,-0.0509,-0.0514,-0.0461,-0.0461,-0.0462,-0.0462,0,-0.0231,-0.0255,-0.0263,-0.0298,-0.0279,-0.0256,-0.0253,-0.0247,-0.0221,-0.0227,-0.0248,-0.0283,-0.0323,-0.0343,-0.0364,-0.0409,-0.0425,-0.0461,-0.0479,-0.0482,-0.0508,-0.0514,-0.0457,-0.0458,-0.0459,-0.046,0,0,-0.0214,-0.0259,-0.0262,-0.027,-0.0262,-0.0249,-0.0252,-0.0246,-0.0244,-0.0247,-0.0247,-0.0295,-0.0293,-0.033,-0.0363,-0.0395,-0.0421,-0.0424,-0.0429,-0.0434,-0.0529,-0.0493,-0.0496,-0.0475,-0.0476,-0.0477,-0.0537,0,-0.0202,-0.023,-0.0252,-0.0251,-0.0251,-0.0239,-0.0241,-0.024,-0.0236,-0.0246,-0.0277,-0.0286,-0.0305,-0.0297,-0.0345,-0.0402,-0.0437,-0.0399,-0.0538,-0.0541,-0.0497,-0.0502,-0.0437,-0.0481,-0.0543,-0.0544,-0.0545,0,-0.0183,-0.021,-0.0189,-0.0232,-0.0225,-0.0208,-0.0175,-0.0178,-0.021,-0.0211,-0.0236,-0.0263,-0.0302,-0.0304,-0.0414,-0.0395,-0.0449,-0.0486,-0.0491,-0.0476,-0.0515,-0.0494,-0.049,-0.0555,-0.0554,-0.0554,-0.0553,0,-0.012,-0.018,-0.0145,-0.0143,-0.017,-0.0149,-0.0135,-0.0144,-0.0152,-0.0161,-0.0165,-0.024,-0.025,-0.0341,-0.0416,-0.0422,-0.0529,-0.0564,-0.0582,-0.058,-0.0558,-0.0551,-0.0635,-0.0635,-0.0635,-0.0634,-0.0634,0,-0.0092,-0.0088,-0.0109,-0.0089,-0.0066,-0.0081,-0.0052,-0.006,-0.0074,-0.0088,-0.0127,-0.015,-0.0258,-0.0341,-0.0419,-0.0512,-0.0548,-0.0562,-0.0595,-0.0536,-0.0527,-0.0622,-0.0619,-0.0637,-0.0636,-0.0636,-0.0635,0,-0.0039,-0.0036,-0.0041,-0.0048,-0.0037,-0.0004,0.0001,-0.0003,0.0003,-0.0011,-0.0003,-0.0091,-0.0173,-0.0288,-0.0422,-0.0499,-0.059,-0.0614,-0.0511,-0.0529,-0.0602,-0.0596,-0.0645,-0.0645,-0.0644,-0.0644,-0.0643,0,-0.0007,0.0005,0.0003,0.0015,0.0022,0.0056,0.0071,0.0062,0.006,0.002,0.0012,-0.0058,-0.0104,-0.0275,-0.0377,-0.0496,-0.0568,-0.0545,-0.0539,-0.0576,-0.0604,-0.06,-0.0595,-0.0491,-0.0489,-0.0488,-0.0487,0,0.0016,0.0028,0.0026,0.0055,0.0081,0.0067,0.0096,0.0102,0.0088,0.0095,0.0069,0.0044,-0.007,-0.016,-0.0301,-0.0381,-0.0518,-0.052,-0.0616,-0.0487,-0.0433,-0.0459,-0.046,-0.0474,-0.0476,-0.0477,-0.0477,-0.0478,0.0024,0.0022,0.0031,0.0056,0.0093,0.0084,0.0095,0.0113,0.0131,0.0177,0.0138,0.0156,0.0023,-0.0093,-0.0236,-0.0375,-0.0395,-0.0474,-0.0478,-0.0483,-0.0443,-0.039,-0.0415,-0.0415,-0.0416,-0.0417,-0.0417,0,-0.0012,-0.0004,0.0019,0.003,0.0064,0.0092,0.0109,0.0133,0.0193,0.0266,0.0315,0.0224,0.0148,-0.0018,-0.0181,-0.0307,-0.031,-0.0376,-0.0369,-0.0378,-0.0388,-0.0343,-0.0289,-0.0289,-0.0289,-0.0289,0,0,-0.0031,-0.0057,-0.0049,-0.0009,0.0044,0.0089,0.0117,0.0177,0.0252,0.0345,0.0406,0.0469,0.0233,0.012,-0.0057,-0.0175,-0.0239,-0.0182,-0.0265,-0.0241,-0.0248,-0.0418,-0.0356,0,0,0,0,0]}],[{"header":{"parameterUnit":"m.s-1","parameterCategory":2,"la1":30.2991,"la2":30.254,"lo1":-89.0895,"lo2":-89.0444,"dy":0.0017,"dx":0.0017,"nx":28,"ny":28,"refTime":"2024-06-13T09:00:00:Z","depth":"4","parameterNumber":2,"parameterNumberName":"U-component_of_CURRENTS"},"data":[0,0,0,0,0,0,0,0,0,0,0,0,0,0,0,0,0,0,0,0,0,0,0,0,0,0,0,0,0,0,0,0,0,0,0,0,0,0,0,0,0,0,0,0,0,0,0,0,0,0,0,0,0,0,0,0,0,0,-0.0029,-0.0029,0,-0.0039,-0.004,-0.004,-0.0041,-0.004,-0.004,-0.0039,-0.0066,-0.0067,-0.0068,0,0,0,0,0,0,0,0,0,0,0,0,0,-0.0062,-0.0061,-0.0029,-0.0029,-0.0029,-0.0039,-0.004,-0.004,-0.0041,-0.004,-0.004,-0.0039,-0.0066,-0.0067,-0.0068,0,0,0,0,0,0,0,0,0,0,0,0,0,-0.006,-0.0061,-0.0029,-0.0028,-0.0028,-0.0039,-0.004,-0.004,-0.0041,-0.004,-0.004,-0.0039,-0.0065,-0.0067,-0.0068,-0.0091,0,0,-0.0073,-0.0074,0,0,0,0,0,0,0,0,-0.006,-0.0059,-0.0029,-0.0028,-0.0028,-0.0035,-0.0061,-0.0057,-0.0041,-0.0039,-0.0039,-0.0039,-0.0056,-0.0058,-0.0066,-0.0092,-0.0093,-0.0074,-0.0075,-0.0075,-0.0076,0,0,0,0,0,0,0,-0.006,-0.0059,-0.0037,-0.0028,-0.0028,-0.0044,-0.0043,-0.006,-0.0054,-0.0039,-0.0039,-0.0035,-0.0056,-0.0064,-0.0066,-0.0094,-0.0074,-0.0075,-0.0076,-0.0077,-0.0152,-0.0153,0,0,0,0,0,0,-0.005,-0.0059,-0.0036,-0.0037,-0.0039,-0.0044,-0.0043,-0.0036,-0.0053,-0.0054,-0.0035,-0.0035,-0.0062,-0.0064,-0.0067,-0.009,-0.0075,-0.0077,-0.0078,-0.0151,-0.0153,-0.0154,0,0,0,0,0,0,-0.0051,-0.0048,-0.0036,-0.0046,-0.0045,-0.0043,-0.0036,-0.0037,-0.0038,-0.0049,-0.0051,-0.0035,-0.0061,-0.0065,-0.0089,-0.0091,-0.0078,-0.0079,-0.015,-0.0152,-0.0153,-0.0138,0,0,0,0,0,0,-0.0052,-0.0048,-0.0046,-0.0045,-0.0044,-0.0037,-0.0037,-0.0037,-0.0036,-0.0035,-0.005,-0.0052,-0.0061,-0.0086,-0.009,-0.0093,-0.008,-0.0149,-0.0151,-0.0153,-0.0137,-0.0139,-0.014,0,0,0,0,0,-0.0053,-0.0052,-0.0046,-0.0043,-0.0039,-0.0037,-0.0039,-0.0038,-0.0036,-0.0038,-0.0056,-0.0051,-0.0101,-0.0089,-0.0093,-0.0096,-0.0148,-0.015,-0.0153,-0.0137,-0.0139,-0.014,0,0,0,0,0,0,-0.0072,-0.0052,-0.0045,-0.004,-0.0034,-0.0036,-0.0037,-0.0036,-0.0052,-0.0053,-0.0065,-0.0069,-0.0091,-0.0102,-0.0088,-0.0127,-0.0124,-0.0127,-0.011,-0.0112,-0.0114,-0.0094,-0.0082,0,0,0,0,0,-0.0072,-0.0063,-0.0049,-0.0047,-0.004,-0.0038,-0.0039,-0.0037,-0.0046,-0.0051,-0.0063,-0.0084,-0.0107,-0.0115,-0.0136,-0.0157,-0.0149,-0.0164,-0.0165,-0.0166,-0.0155,-0.0169,-0.0169,-0.0161,-0.0161,-0.0161,0,0,-0.0083,-0.0067,-0.0066,-0.005,-0.0045,-0.0042,-0.0038,-0.0035,-0.004,-0.0053,-0.007,-0.0089,-0.0116,-0.0139,-0.015,-0.0146,-0.0161,-0.0169,-0.0169,-0.0158,-0.0171,-0.0171,-0.0172,-0.0163,-0.0163,-0.0163,0,0,-0.0092,-0.008,-0.0071,-0.0063,-0.0046,-0.0047,-0.0042,-0.004,-0.0045,-0.0061,-0.0078,-0.0099,-0.0128,-0.0148,-0.0163,-0.0188,-0.0171,-0.0195,-0.0181,-0.0195,-0.0195,-0.0195,-0.0164,-0.0162,-0.0193,-0.0193,-0.0193,0,-0.0103,-0.0087,-0.0073,-0.0059,-0.0052,-0.0046,-0.004,-0.0048,-0.0059,-0.0064,-0.0064,-0.0111,-0.0132,-0.0163,-0.0171,-0.0189,-0.0177,-0.0168,-0.0194,-0.0194,-0.0194,-0.0163,-0.016,-0.0192,-0.0193,-0.0193,-0.0193,0,-0.0105,-0.0089,-0.0083,-0.0062,-0.0059,-0.0052,-0.005,-0.0055,-0.0058,-0.0063,-0.0085,-0.0116,-0.0135,-0.0154,-0.0168,-0.0185,-0.0168,-0.0194,-0.0181,-0.0194,-0.0161,-0.0158,-0.0192,-0.0192,-0.0192,-0.0192,0,0,-0.0126,-0.009,-0.0087,-0.0071,-0.0055,-0.0051,-0.006,-0.0061,-0.0061,-0.0076,-0.0076,-0.0122,-0.012,-0.0137,-0.0159,-0.0174,-0.0163,-0.0177,-0.0178,-0.0131,-0.0153,-0.0109,-0.0102,-0.019,-0.019,-0.019,-0.012,0,-0.0126,-0.0103,-0.0087,-0.0073,-0.0058,-0.0051,-0.0058,-0.0062,-0.0065,-0.0067,-0.009,-0.0097,-0.012,-0.0118,-0.0139,-0.0161,-0.0159,-0.0176,-0.0162,-0.016,-0.0108,-0.0099,-0.019,-0.0118,-0.0117,-0.0117,-0.0117,0,-0.0128,-0.0106,-0.009,-0.0062,-0.0055,-0.0047,-0.0042,-0.0047,-0.0052,-0.005,-0.0056,-0.0062,-0.0075,-0.0096,-0.0115,-0.0122,-0.0127,-0.0144,-0.0142,-0.0103,-0.0112,-0.0112,-0.0112,-0.0112,-0.0113,-0.0113,-0.0113,0,-0.0146,-0.0109,-0.0095,-0.0085,-0.0057,-0.0045,-0.0035,-0.0037,-0.0035,-0.0025,-0.0009,-0.003,-0.0018,-0.0049,-0.0061,-0.0085,-0.0072,-0.0115,-0.0075,-0.007,-0.0136,-0.0137,-0.0122,-0.0122,-0.0122,-0.0123,-0.0123,0,-0.0149,-0.0135,-0.0092,-0.0081,-0.0057,-0.0038,-0.0021,-0.0016,-0.0001,0.0012,0.0012,0.0017,-0.0006,-0.0,-0.0034,-0.0023,-0.0043,-0.0054,-0.0053,-0.0129,-0.0131,-0.0132,-0.0134,-0.012,-0.012,-0.0121,-0.0121,0,-0.017,-0.0145,-0.0125,-0.0083,-0.0062,-0.0047,-0.0001,0.0005,0.0031,0.0053,0.0068,0.0073,0.008,0.0071,0.0043,0.0036,0.002,0.0028,-0.0001,-0.0006,0.0026,0.0024,0.0077,0.0079,0.0081,0.0082,0.0083,0,-0.0167,-0.0163,-0.0129,-0.0109,-0.0079,-0.0042,-0.0021,0.0014,0.0026,0.0075,0.0081,0.012,0.012,0.0139,0.0104,0.0097,0.0076,0.0109,0.002,0.005,0.0045,0.004,0.0035,0.0086,0.0087,0.0087,0.0088,0,-0.017,-0.0176,-0.0168,-0.013,-0.0094,-0.0058,-0.0015,0.0003,0.0046,0.0075,0.0117,0.0143,0.0165,0.0146,0.018,0.0144,0.0103,0.0126,0.012,0.0037,0.0061,0.0054,0.0047,0.0094,0.0093,0.0092,0.0092,0,-0.0173,-0.0189,-0.0187,-0.0149,-0.0115,-0.0071,-0.0047,0.0001,0.003,0.0102,0.0108,0.0138,0.0161,0.0171,0.0168,0.0184,0.0151,0.0147,0.014,0.0133,0.0115,0.0152,0.0229,0,0,0,0,0,-0.0155,-0.0194,-0.019,-0.0155,-0.0127,-0.0091,-0.0045,-0.0021,0.0036,0.0074,0.0103,0.0123,0.0162,0.0152,0.0171,0.0156,0.0132,0.0179,0.0118,0.0127,0.012,0.0091,0,0,0,0,0,0,-0.0147,-0.0181,-0.0205,-0.0164,-0.0131,-0.0089,-0.0055,-0.0016,0.0005,0.0063,0.0065,0.0132,0.0135,0.0148,0.0171,0.0175,0.0142,0.0201,0.0202,0.0131,0.0125,0.0119,0.0087,0,0,0,0,0]},{"header":{"parameterUnit":"m.s-1","parameterCategory":2,"la1":30.2991,"la2":30.254,"lo1":-89.0895,"lo2":-89.0444,"dy":0.0017,"dx":0.0017,"nx":28,"ny":28,"refTime":"2024-06-13T09:00:00:Z","depth":"4","parameterNumber":3,"parameterNumberName":"V-component_of_CURRENTS"},"data":[0,0,0,0,0,0,0,0,0,0,0,0,0,0,0,0,0,0,0,0,0,0,0,0,0,0,0,0,0,0,0,0,0,0,0,0,0,0,0,0,0,0,0,0,0,0,0,0,0,0,0,0,0,0,0,0,0,0,0.0025,0.0025,0,-0.0023,-0.0023,-0.0024,-0.0059,-0.0059,-0.0059,-0.006,-0.0124,-0.0126,-0.0127,0,0,0,0,0,0,0,0,0,0,0,0,0,0.0075,0.0074,0.0025,0.0025,0.0024,-0.0022,-0.0023,-0.0024,-0.0059,-0.0059,-0.0059,-0.006,-0.0124,-0.0125,-0.0127,0,0,0,0,0,0,0,0,0,0,0,0,0,0.0042,0.0074,0.0025,0.0002,-0.0001,-0.0022,-0.0023,-0.0024,-0.0059,-0.0059,-0.006,-0.006,-0.0123,-0.0125,-0.0127,-0.0134,0,0,-0.0134,-0.0135,0,0,0,0,0,0,0,0,0.0044,0.004,0.0006,0.0003,0.0,-0.0035,-0.0029,-0.0061,-0.0059,-0.0037,-0.006,-0.006,-0.0095,-0.01,-0.0108,-0.0137,-0.0139,-0.0134,-0.0136,-0.0137,-0.0137,0,0,0,0,0,0,0,0.0047,0.0042,0.0006,0.0005,0.0002,-0.0011,-0.0016,-0.0036,-0.0064,-0.0039,-0.0042,-0.0046,-0.0097,-0.0106,-0.011,-0.014,-0.0134,-0.0136,-0.0138,-0.0139,-0.0214,-0.0214,0,0,0,0,0,0,0.0055,0.0044,0.0007,0.0004,0.0022,-0.0011,-0.0017,-0.0024,-0.0064,-0.007,-0.0046,-0.0048,-0.0102,-0.0108,-0.0113,-0.0149,-0.0137,-0.0139,-0.014,-0.0213,-0.0214,-0.0215,0,0,0,0,0,0,0.0056,0.0052,0.0009,0.0024,0.0018,-0.0011,-0.0019,-0.0024,-0.005,-0.0068,-0.0075,-0.0068,-0.0103,-0.011,-0.0144,-0.015,-0.014,-0.0142,-0.0212,-0.0213,-0.0214,-0.0204,0,0,0,0,0,0,0.0057,0.0052,0.0041,0.0024,0.0017,-0.0018,-0.0019,-0.0025,-0.0051,-0.0054,-0.0089,-0.0095,-0.0104,-0.0141,-0.0146,-0.0153,-0.0144,-0.0211,-0.0213,-0.0214,-0.0203,-0.0204,-0.0205,0,0,0,0,0,0.0059,0.0048,0.0041,0.0036,0.0006,-0.0019,-0.0024,-0.0046,-0.0052,-0.007,-0.0089,-0.0094,-0.0152,-0.0143,-0.0149,-0.0157,-0.0211,-0.0212,-0.0214,-0.0203,-0.0204,-0.0205,0,0,0,0,0,0,0.0057,0.0042,0.0035,0.0017,-0.0005,-0.0025,-0.0044,-0.0055,-0.0084,-0.009,-0.0105,-0.0112,-0.0142,-0.0156,-0.0145,-0.0184,-0.0182,-0.0185,-0.0171,-0.0172,-0.0173,-0.0173,-0.0145,0,0,0,0,0,0.0055,0.0043,0.0024,0.0007,-0.0005,-0.0027,-0.0042,-0.0056,-0.0078,-0.0092,-0.0112,-0.0134,-0.0151,-0.0167,-0.0186,-0.0211,-0.0212,-0.022,-0.0221,-0.0222,-0.0226,-0.023,-0.0231,-0.022,-0.022,-0.0219,0,0,0.0051,0.0039,0.0033,0.0006,-0.0013,-0.0038,-0.0038,-0.0066,-0.0087,-0.0094,-0.0133,-0.014,-0.0159,-0.0182,-0.0197,-0.0196,-0.0225,-0.0224,-0.0224,-0.0228,-0.0231,-0.0232,-0.0233,-0.0221,-0.022,-0.022,0,0,0.0038,0.0024,0.0009,-0.0012,-0.0041,-0.0055,-0.0066,-0.0092,-0.0109,-0.0139,-0.0144,-0.0159,-0.0193,-0.0202,-0.021,-0.0232,-0.0228,-0.0236,-0.0243,-0.0245,-0.0246,-0.0247,-0.0242,-0.0243,-0.0238,-0.0238,-0.0238,0,0.003,0.0011,-0.0002,-0.0027,-0.0045,-0.0065,-0.009,-0.011,-0.0144,-0.0154,-0.0155,-0.0187,-0.0202,-0.0221,-0.0224,-0.0233,-0.023,-0.0233,-0.0245,-0.0246,-0.0246,-0.0242,-0.0242,-0.0238,-0.0238,-0.0238,-0.0238,0,0.0008,-0.0015,-0.0028,-0.0063,-0.0086,-0.0111,-0.0136,-0.016,-0.0174,-0.0185,-0.0207,-0.0216,-0.0232,-0.0235,-0.0236,-0.0247,-0.0241,-0.0241,-0.0237,-0.0247,-0.0242,-0.0242,-0.0238,-0.0238,-0.0238,-0.0238,0,0,0.0001,-0.0034,-0.0043,-0.006,-0.0105,-0.0124,-0.0162,-0.0193,-0.0209,-0.023,-0.0242,-0.026,-0.0251,-0.026,-0.0256,-0.0258,-0.0254,-0.025,-0.025,-0.0237,-0.0251,-0.0247,-0.0247,-0.0251,-0.0251,-0.0251,-0.0243,0,-0.0018,-0.0052,-0.0071,-0.0114,-0.0134,-0.0163,-0.0193,-0.0223,-0.024,-0.0257,-0.0259,-0.0265,-0.0264,-0.0255,-0.0261,-0.0255,-0.0256,-0.0256,-0.0252,-0.0253,-0.024,-0.0248,-0.0252,-0.0243,-0.0243,-0.0243,-0.0243,0,-0.0042,-0.0058,-0.0093,-0.0128,-0.0141,-0.017,-0.0212,-0.0238,-0.0266,-0.0271,-0.0278,-0.0274,-0.0277,-0.0268,-0.0272,-0.0268,-0.0262,-0.0257,-0.0257,-0.0258,-0.025,-0.0235,-0.0244,-0.0244,-0.0244,-0.0244,-0.0244,0,-0.0039,-0.0078,-0.0102,-0.0117,-0.016,-0.0183,-0.0206,-0.0243,-0.0252,-0.027,-0.0261,-0.0278,-0.0261,-0.0272,-0.0262,-0.0264,-0.026,-0.0263,-0.0255,-0.0254,-0.0263,-0.0263,-0.0266,-0.0266,-0.0266,-0.0266,-0.0266,0,-0.0056,-0.0078,-0.01,-0.0117,-0.0141,-0.0175,-0.0202,-0.0226,-0.0241,-0.0237,-0.0255,-0.0245,-0.0258,-0.0255,-0.0263,-0.0259,-0.0262,-0.0258,-0.0254,-0.0259,-0.0258,-0.0263,-0.0263,-0.0266,-0.0266,-0.0266,-0.0266,0,-0.0063,-0.0079,-0.0103,-0.0135,-0.0145,-0.0163,-0.0188,-0.0198,-0.0212,-0.0203,-0.0198,-0.0209,-0.021,-0.0225,-0.0233,-0.0244,-0.0252,-0.0247,-0.0244,-0.0239,-0.0244,-0.0244,-0.0247,-0.0247,-0.0247,-0.0247,-0.0247,0,-0.0076,-0.0084,-0.0108,-0.0113,-0.0131,-0.0152,-0.0164,-0.0184,-0.0183,-0.0178,-0.0165,-0.0163,-0.017,-0.0182,-0.021,-0.0235,-0.0235,-0.0237,-0.0253,-0.0248,-0.0244,-0.0244,-0.0243,-0.0247,-0.0247,-0.0246,-0.0246,0,-0.0089,-0.0092,-0.0104,-0.0107,-0.012,-0.0129,-0.0141,-0.0134,-0.0142,-0.0139,-0.0126,-0.0137,-0.014,-0.0174,-0.0186,-0.0206,-0.0242,-0.0236,-0.0237,-0.0252,-0.0247,-0.0243,-0.0243,-0.0246,-0.0246,-0.0246,-0.0246,0,-0.0095,-0.0098,-0.0101,-0.0105,-0.0108,-0.0111,-0.012,-0.0116,-0.0116,-0.0103,-0.0098,-0.0112,-0.0121,-0.0158,-0.0175,-0.0193,-0.0204,-0.021,-0.0212,-0.0213,-0.0212,-0.0201,-0.0184,0,0,0,0,0,-0.01,-0.0099,-0.0098,-0.0106,-0.01,-0.0105,-0.0105,-0.011,-0.0104,-0.0086,-0.0091,-0.0096,-0.0123,-0.0147,-0.0164,-0.0185,-0.0215,-0.0206,-0.0225,-0.0243,-0.0244,-0.0249,0,0,0,0,0,0,-0.0107,-0.0105,-0.01,-0.0098,-0.0098,-0.01,-0.01,-0.0097,-0.0093,-0.0083,-0.0102,-0.0098,-0.0135,-0.0109,-0.0163,-0.017,-0.0184,-0.022,-0.022,-0.0243,-0.0244,-0.0244,-0.0249,0,0,0,0,0]}]]